Regional Weather Roundup
Issued by NWS

Home | Current Version | Previous Version | Text Only | Print | Product List | Glossary Off
Versions: 1 2 3 4 5 6 7 8 9 10 11 12 13 14 15 16 17 18 19 20 21 22 23 24 25 26 27 28 29 30 31 32 33 34 35 36 37 38 39 40 41 42 43 44 45 46 47 48 49 50

000
ASUS43 KMPX 311301
RWRMN
WEATHER ROUNDUP FOR MINNESOTA
NATIONAL WEATHER SERVICE TWIN CITIES/CHANHASSEN MN
800 AM CDT FRI OCT 31 2014


NOTE: "FAIR" INDICATES FEW OR NO CLOUDS BELOW 12,000 FEET WITH NO
SIGNIFICANT WEATHER AND/OR OBSTRUCTIONS TO VISIBILITY. N/A MEANS
CURRENT SKY AND/OR WEATHER CONDITIONS ARE NOT AVAILABLE.

MNZ060>063-068>070-311400-
   Twin Cities Metro

CITY           SKY/WX    TMP DP  RH WIND       PRES   REMARKS
TWIN CITIES    CLEAR     26  16  65 N13       30.52R WCI  15
ST PAUL        CLEAR     27  17  66 N14       30.53R WCI  16
CRYSTAL        CLEAR     27  17  66 N9        30.51R WCI  18
BLAINE         CLEAR     27  19  74 MISG        N/A
LAKEVILLE      CLEAR     25  16  68 N10       30.50R WCI  15
EDEN PRAIRIE   CLEAR     27  17  66 N12       30.50R WCI  17
SOUTH ST PAUL  CLEAR     28  17  63 N9G17     30.51R WCI  20
LAKE ELMO      FAIR      28  19  69 N9        30.51R WCI  20
$$
MNZ001>005-007-008-013>017-022>024-027-028-311400-
   Northwest Minnesota

CITY           SKY/WX    TMP DP  RH WIND       PRES   REMARKS
BEMIDJI        CLEAR     20  15  80 NE3       30.55S
HALLOCK        PTCLDY    14  10  85 CALM      30.61F
ROSEAU         CLEAR     18  12  79 CALM      30.60R
WARROAD        MOCLDY    19  16  86 NW5       30.59R WCI  13
THIEF RVR FALL CLEAR     18  16  93 CALM      30.60R
CROOKSTON      CLEAR     14  12  92 CALM      30.62S
FOSSTON        CLEAR     12  10  92 CALM      30.60R
DETROIT LAKES  CLEAR     19  18  93 NW3       30.58S
MOORHEAD       CLEAR     16  16 100 CALM      30.62R
PARK RAPIDS    CLEAR     21  15  78 NE5       30.54F WCI  15
MAHNOMEN       FAIR      15  13  91 W3        30.58S
$$
MNZ006-009>011-018-025>026-311400-
   North Central Minnesota

CITY           SKY/WX    TMP DP  RH WIND       PRES   REMARKS
BAUDETTE       CLEAR     21  18  88 CALM      30.57S
FLAG ISLAND    CLEAR     27  21  80 CALM      30.56S
INTL FALLS     PTCLDY    20  16  84 NW5       30.56S WCI  13
WASKISH        CLEAR     16  14  93 CALM      30.56F
BIG FORK       CLEAR     19  18  93 CALM      30.56S
LONGVILLE      CLEAR     21  18  86 CALM      30.55S
GRAND RAPIDS   CLOUDY    25  16  68 N9        30.55R WCI  15
CRANE LAKE     CLOUDY    25  19  80 CALM      30.57R
ORR            CLOUDY    25  18  74 CALM      30.52S
COOK           CLEAR     21  18  86 CALM      30.54R
WALKER         FAIR      23  16  76 N5        30.55S WCI  16
$$
MNZ012-019>021-037-311400-
   Northeast Minnesota

CITY           SKY/WX    TMP DP  RH WIND       PRES   REMARKS
DULUTH         PTCLDY    25  16  68 N7        30.50R WCI  17
ELY            CLOUDY    25  19  80 N8        30.50R WCI  16
HIBBING        CLEAR     21  14  74 NW6       30.54R WCI  13
EVELETH        PTCLDY    25  18  74 N8        30.54R WCI  16
DULUTH HARBOR  CLEAR     30  21  69 N17       30.54R WCI  18
TWO HARBORS    CLEAR     27  19  74 N5        30.49S WCI  21
SILVER BAY     CLEAR     27  19  74 N6        30.49R WCI  20
GRAND MARAIS     N/A     28  18  66 N7        30.50R WCI  21
G MARAIS ARPRT CLEAR     19  14  79 NW7       30.43R WCI  10
$$
MNZ029>031-032-039>041-046>048-054>057-064-311400-
   West Central Minnesota

CITY           SKY/WX    TMP DP  RH WIND       PRES   REMARKS
FERGUS FALLS   CLEAR     18  16  93 NE3       30.61F
WHEATON        CLEAR     16  12  86 NW5       30.63R WCI   9
MORRIS         FAIR      18  16  93 N6        30.58R WCI   9
ALEXANDRIA     CLEAR     24  17  74 N8        30.57R WCI  15
ELBOW LAKE     FAIR      18  17  95 CALM      30.58S
WADENA         CLEAR     16  14  93 W3        30.55S
GLENWOOD       CLEAR     19  18  93 N6        30.56R WCI  11
APPLETON       CLEAR     19  18  93 N7        30.59R WCI  10
BENSON         CLEAR     16  14  93 N6        30.58R WCI   7
ORTONVILLE     CLEAR     19  16  86 NW6       30.59R WCI  11
MADISON        FAIR      21  19  93 NW7       30.59S WCI  13
WILLMAR        FAIR      25  18  74 N7        30.57R WCI  17
$$
MNZ033>034-036-042>043-049>051-058-059-311400-
   Central Minnesota

CITY           SKY/WX    TMP DP  RH WIND       PRES   REMARKS
ST CLOUD       CLEAR     24  16  71 N8        30.53R WCI  15
SAUK CENTRE    FAIR      20  16  84 NW7       30.56R WCI  12
PAYNESVILLE    CLEAR     18  16  89 W6        30.55R WCI  10
AITKIN         CLEAR     23  16  74 NW5       30.54R WCI  17
PINE RIVER     CLEAR     23  18  80 CALM      30.57R
BRAINERD       CLEAR     24  17  74 NE10      30.54S WCI  14
STAPLES        CLEAR     18  14  86 CALM      30.55S
LONG PRAIRIE   FAIR      19  16  86 NW3       30.55R
LITTLE FALLS   CLEAR     25  18  74 CALM      30.54R
LITCHFIELD       N/A     21  19  93 NW6       30.54R WCI  14
BUFFALO        CLEAR     25  18  74 N6        30.54R WCI  18
MAPLE LAKE     CLEAR     26  20  80 N6        30.54S WCI  19
$$
MNZ037-044-045-052-053-311400-
   East Central Minnesota

CITY           SKY/WX    TMP DP  RH WIND       PRES   REMARKS
PRINCETON      CLEAR     27  18  69 N8        30.53S WCI  18
MORA           CLEAR     27  19  74 N5        30.55R WCI  21
CAMBRIDGE      CLEAR     27  16  63 N6        30.52R WCI  20
RUSH CITY      CLEAR     24  18  75 N6        30.53R WCI  17
MOOSE LAKE     CLEAR     27  18  69 N6        30.52R WCI  20
HINCKLEY       FAIR      25  19  80 CALM      30.53R
CLOQUET        CLEAR     25  16  68 NW9       30.51R WCI  15
MCGREGOR       PTCLDY    27  19  74 N7        30.55R WCI  19
$$
MNZ071>073-080-081-089-090-097-098-311400-
   Southwest Minnesota

CITY           SKY/WX    TMP DP  RH WIND       PRES   REMARKS
MONTEVIDEO     CLEAR     19  18  93 N6        30.58S WCI  11
GRANITE FALLS  CLEAR     20  18  93 NW7       30.58S WCI  11
CANBY          CLEAR     20  19  94 NW8       30.59R WCI  10
MARSHALL       CLEAR     18  12  79 NW9       30.55R WCI   6
REDWOOD FALLS  CLEAR     23  19  85 NW8       30.56R WCI  14
OLIVIA         CLEAR     21  18  86 NW6       30.55R WCI  14
PIPESTONE      CLEAR     19  18  93 NW6       30.54R WCI  11
WINDOM         CLEAR     21  18  86 NW10      30.52R WCI  10
WORTHINGTON    CLEAR     18  16  93 NW7       30.53R WCI   8
JACKSON        CLEAR     23  19  86 N8        30.51R WCI  14
TRACY          CLEAR     22  19  91 NW9       30.55R WCI  11
SLAYTON        CLEAR     21  19  92 N9        30.54R WCI  11
$$
MNZ065>067-074>077-082>085-091>093-311400-
   South Central Minnesota

CITY           SKY/WX    TMP DP  RH WIND       PRES   REMARKS
MANKATO        CLEAR     21  12  68 N8        30.50R WCI  12
NEW ULM        CLEAR     23  18  80 N9        30.53R WCI  13
ST JAMES       CLEAR     21  18  86 NW6       30.53R WCI  14
FAIRMONT       CLEAR     23  16  74 NW12      30.50R WCI  12
GLENCOE        CLEAR     24  19  84 NW5       30.52R WCI  18
FARIBAULT      CLEAR     25  18  74 N8        30.49R WCI  16
OWATONNA       CLEAR     23  16  74 NW7       30.47R WCI  15
WASECA         CLEAR     21  14  73 N6        30.50R WCI  14
ALBERT LEA     CLEAR     25  18  74 N8        30.45R WCI  16
$$
MNZ078>079-086>088-094>096-311400-
   Southeast Minnesota

CITY           SKY/WX    TMP DP  RH WIND       PRES   REMARKS
ROCHESTER      CLEAR     25  17  72 N14       30.43R WCI  13
RED WING       CLEAR     27  16  63 N7        30.47R WCI  19
STANTON        CLEAR     27  18  69 N12       30.47R WCI  16
DODGE CENTER   PTCLDY    25  19  80 N9        30.44R WCI  15
WINONA         CLEAR     32  21  64 N12G17    30.43R WCI  23
AUSTIN         CLEAR     25  18  74 N10G17    30.44R WCI  15
PRESTON        CLEAR     25  17  73 N14       30.40S WCI  13
$$
ABBREVIATIONS USED IN REMARKS
   TC - TEMPERATURES IN CELSIUS
  WCI - WIND CHILL INDEX
   HX - HEAT INDEX
  VSB - VISIBILITY
$$



USA.gov is the U.S. government's official web portal to all federal, state and local government web resources and services.